Date String (YYYY-MM-DD hh:mm:ss) UTC,Instrument flags,Ambient pressure (hPa),Sample flow (lpm),Bypass flow (lpm),Sample temperature (°C),Ambient temperature (°C),ASC tube jacket temperature (°C),LED temperature (°C),Box temperature (°C),Sample RH (%),Span deviation,Mass concentration (μg/m³),Mass concentration (μg/m³),Mass concentration (μg/m³)
DateTimeUTC,F1_M11,P_M11,Q1_M11,Q2_M11,T1_M11,T2_M11,T3_M11,T4_M11,T5_M11,U1_M11,ZSPAN_M11,X0_M11,X2_M11,X1_M11
2022-12-02 12:00:00,,0810.3,5.00,0.00,22.0,20.7,00.0,31.0,23.8,13.7,0000.0,0002.11,0000.57,0000.32
2022-12-02 12:01:00,,0810.3,5.00,0.00,22.0,20.6,00.0,30.9,23.8,13.4,0000.0,0001.83,0000.58,0000.33
2022-12-02 12:02:00,,0810.4,4.99,0.00,22.0,20.6,00.0,30.9,23.7,13.4,0000.0,0002.04,0000.58,0000.32
2022-12-02 12:03:00,,0810.6,5.00,0.00,22.0,20.5,00.0,30.9,23.7,13.7,0000.0,0003.05,0000.59,0000.32
2022-12-02 12:04:00,,0810.5,5.01,0.00,22.0,20.4,00.0,30.9,23.6,14.0,0000.0,0003.16,0000.61,0000.33
2022-12-02 12:05:00,,0810.5,5.01,0.00,21.9,20.4,00.0,30.9,23.6,13.7,0000.0,0003.27,0000.63,0000.33
2022-12-02 12:06:00,,0810.5,5.00,0.00,21.9,20.4,00.0,30.9,23.6,14.1,0000.0,0003.23,0000.62,0000.32
2022-12-02 12:07:00,,0810.5,5.00,0.00,21.9,20.3,00.0,30.9,23.5,13.7,0000.0,0003.23,0000.62,0000.32
2022-12-02 12:08:00,,0810.4,5.00,0.00,21.9,20.3,00.0,30.9,23.5,13.5,0000.0,0003.37,0000.66,0000.33
2022-12-02 12:09:00,,0810.5,5.00,0.00,21.9,20.3,00.0,30.8,23.5,13.5,0000.0,0003.39,0000.69,0000.33
2022-12-02 12:10:00,,0810.5,5.00,0.00,21.8,20.3,00.0,30.8,23.5,13.6,0000.0,0003.74,0000.70,0000.33
2022-12-02 12:11:00,,0810.6,4.99,0.00,21.8,20.3,00.0,30.8,23.5,13.7,0000.0,0003.66,0000.69,0000.33
2022-12-02 12:12:00,,0810.6,5.00,0.00,21.8,20.2,00.0,30.8,23.4,14.0,0000.0,0003.45,0000.70,0000.34
2022-12-02 12:13:00,,0810.6,5.01,0.00,21.8,20.2,00.0,30.8,23.4,14.1,0000.0,0003.38,0000.69,0000.35
2022-12-02 12:14:00,,0810.6,5.01,0.00,21.8,20.2,00.0,30.8,23.4,13.7,0000.0,0002.14,0000.67,0000.35
2022-12-02 12:15:00,,0810.8,4.99,0.00,21.7,20.2,00.0,30.8,23.4,13.7,0000.0,0002.08,0000.66,0000.35
2022-12-02 12:16:00,,0810.8,4.99,0.00,21.7,20.2,00.0,30.8,23.4,14.1,0000.0,0001.90,0000.63,0000.34
2022-12-02 12:17:00,,0810.7,4.99,0.00,21.7,20.2,00.0,30.7,23.4,13.9,0000.0,0001.89,0000.62,0000.35
2022-12-02 12:18:00,,0810.7,5.00,0.00,21.7,20.2,00.0,30.7,23.4,14.0,0000.0,0001.98,0000.62,0000.34
2022-12-02 12:19:00,,0810.8,5.00,0.00,21.7,20.2,00.0,30.7,23.4,14.4,0000.0,0002.90,0000.61,0000.33
2022-12-02 12:20:00,,0810.7,5.01,0.00,21.7,20.2,00.0,30.7,23.4,13.8,0000.0,0003.15,0000.57,0000.33
2022-12-02 12:21:00,,0810.6,5.01,0.00,21.7,20.2,00.0,30.7,23.4,13.9,0000.0,0003.08,0000.57,0000.33
2022-12-02 12:22:00,,0810.9,5.00,0.00,21.7,20.1,00.0,30.7,23.3,13.6,0000.0,0002.53,0000.57,0000.34
2022-12-02 12:23:00,,0810.8,5.00,0.00,21.7,20.1,00.0,30.7,23.3,13.9,0000.0,0002.62,0000.58,0000.34
2022-12-02 12:24:00,,0810.8,5.00,0.00,21.6,20.1,00.0,30.7,23.3,14.2,0000.0,0002.65,0000.59,0000.33
2022-12-02 12:25:00,,0810.7,5.00,0.00,21.6,20.1,00.0,30.7,23.3,14.1,0000.0,0002.89,0000.59,0000.33
2022-12-02 12:26:00,,0810.7,5.00,0.00,21.6,20.1,00.0,30.6,23.3,13.9,0000.0,0003.19,0000.59,0000.33
2022-12-02 12:27:00,,0810.7,5.00,0.00,21.6,20.1,00.0,30.6,23.3,14.1,0000.0,0003.29,0000.59,0000.33
2022-12-02 12:28:00,,0810.7,5.00,0.00,21.6,20.1,00.0,30.6,23.3,14.0,0000.0,0003.39,0000.60,0000.33
2022-12-02 12:29:00,,0810.7,5.00,0.00,21.7,20.8,00.0,30.6,23.5,13.8,0000.0,0003.34,0000.63,0000.33
2022-12-02 12:30:00,,0810.9,5.01,0.00,21.8,21.9,00.0,30.6,23.8,13.6,0000.0,0003.30,0000.68,0000.34
2022-12-02 12:31:00,,0811.0,5.00,0.00,21.9,22.1,00.0,30.7,24.0,13.7,0000.0,0003.66,0000.75,0000.35
2022-12-02 12:32:00,,0811.0,4.98,0.00,21.9,21.8,00.0,30.7,24.0,13.7,0000.0,0003.70,0000.76,0000.34
2022-12-02 12:33:00,,0811.0,5.00,0.00,22.0,21.5,00.0,30.8,23.9,13.7,0000.0,0003.69,0000.74,0000.34
2022-12-02 12:34:00,,0811.0,5.02,0.00,22.0,21.3,00.0,30.8,23.9,14.0,0000.0,0003.64,0000.72,0000.33
2022-12-02 12:35:00,,0811.0,4.99,0.00,22.0,21.2,00.0,30.8,23.9,13.7,0000.0,0004.03,0000.72,0000.33
2022-12-02 12:36:00,,0811.1,4.99,0.00,22.0,21.1,00.0,30.8,23.8,13.8,0000.0,0004.92,0000.75,0000.34
2022-12-02 12:37:00,,0811.1,5.01,0.00,22.0,21.0,00.0,30.9,23.8,13.9,0000.0,0004.66,0000.76,0000.34
2022-12-02 12:38:00,,0811.0,5.01,0.00,22.0,20.9,00.0,30.9,23.8,13.5,0000.0,0004.57,0000.75,0000.34
2022-12-02 12:39:00,,0811.0,4.99,0.00,22.0,20.8,00.0,30.9,23.7,13.8,0000.0,0004.77,0000.74,0000.34
2022-12-02 12:40:00,,0811.0,4.99,0.00,22.0,20.8,00.0,30.9,23.8,13.7,0000.0,0004.73,0000.71,0000.34
2022-12-02 12:41:00,,0811.1,5.00,0.00,22.0,20.7,00.0,30.9,23.7,13.9,0000.0,0003.72,0000.67,0000.34
2022-12-02 12:42:00,,0811.1,5.01,0.00,22.0,20.7,00.0,30.9,23.7,13.8,0000.0,0003.21,0000.63,0000.34
2022-12-02 12:43:00,,0811.2,4.99,0.00,22.0,20.6,00.0,30.9,23.7,13.9,0000.0,0003.17,0000.63,0000.35
2022-12-02 12:44:00,,0811.2,4.99,0.00,22.0,20.6,00.0,30.9,23.7,13.9,0000.0,0003.16,0000.64,0000.35
2022-12-02 12:45:00,,0811.2,5.01,0.00,21.9,20.5,00.0,30.9,23.6,14.2,0000.0,0003.18,0000.69,0000.36
2022-12-02 12:46:00,,0811.2,5.01,0.00,21.9,20.5,00.0,30.9,23.7,13.8,0000.0,0002.86,0000.70,0000.36
2022-12-02 12:47:00,,0811.3,5.00,0.00,21.9,20.5,00.0,30.9,23.7,13.4,0000.0,0001.79,0000.69,0000.35
2022-12-02 12:48:00,,0811.3,4.99,0.00,21.9,20.5,00.0,30.9,23.6,13.7,0000.0,0001.77,0000.67,0000.35
2022-12-02 12:49:00,,0811.3,4.99,0.00,21.9,20.5,00.0,30.9,23.6,13.5,0000.0,0002.53,0000.70,0000.37
2022-12-02 12:50:00,,0811.3,5.00,0.00,21.9,20.5,00.0,30.9,23.6,13.7,0000.0,0002.39,0000.72,0000.37
2022-12-02 12:51:00,,0811.3,5.01,0.00,21.9,20.4,00.0,30.9,23.5,13.5,0000.0,0002.41,0000.73,0000.38
2022-12-02 12:52:00,,0811.3,5.01,0.00,21.9,20.4,00.0,30.9,23.5,13.6,0000.0,0002.39,0000.74,0000.38
2022-12-02 12:53:00,,0811.3,5.01,0.00,21.9,20.4,00.0,30.8,23.6,13.9,0000.0,0002.31,0000.72,0000.38
2022-12-02 12:54:00,,0811.5,4.98,0.00,21.9,20.4,00.0,30.8,23.6,13.8,0000.0,0002.99,0000.72,0000.38
2022-12-02 12:55:00,,0811.5,4.99,0.00,21.9,20.4,00.0,30.8,23.6,13.6,0000.0,0003.25,0000.75,0000.38
2022-12-02 12:56:00,,0811.6,5.00,0.00,21.8,20.4,00.0,30.8,23.5,13.8,0000.0,0003.25,0000.74,0000.39
2022-12-02 12:57:00,,0811.6,5.01,0.00,21.8,20.4,00.0,30.8,23.5,13.7,0000.0,0003.15,0000.73,0000.38
2022-12-02 12:58:00,,0811.6,5.00,0.00,21.8,20.3,00.0,30.8,23.5,14.0,0000.0,0003.20,0000.71,0000.38
2022-12-02 12:59:00,,0811.6,5.00,0.00,21.8,20.3,00.0,30.8,23.5,13.8,0000.0,0003.27,0000.74,0000.38
